| time (UTC) | temp C | wind direction | speed KPH | gust KPH | rain 1hr cm | rain 24hr cm | rain mn cm | humidity % | barometer mb |
| 20260503224832 | 7 | 180 | 8.0 | 0.0 | 0.00 | 0.00 | 0.00 | 66 | 1019.0 |
| 20260503223344 | 7 | 180 | 8.0 | 0.0 | 0.00 | 0.00 | 0.00 | 66 | 1019.0 |
| 20260503221849 | 8 | 200 | 11.3 | 0.0 | 0.00 | 0.00 | 0.00 | 66 | 1019.0 |
| 20260503220414 | 8 | 200 | 11.3 | 0.0 | 0.00 | 0.00 | 0.00 | 66 | 1019.0 |
| 20260503214839 | 8 | 210 | 4.8 | 0.0 | 0.00 | 0.00 | 0.00 | 66 | 1019.0 |
| 20260503213332 | 8 | 210 | 4.8 | 0.0 | 0.00 | 0.00 | 0.00 | 66 | 1019.0 |
| 20260503211833 | 11 | 220 | 9.7 | 0.0 | 0.00 | 0.00 | 0.00 | 58 | 1018.0 |
| 20260503210332 | 11 | 220 | 9.7 | 0.0 | 0.00 | 0.00 | 0.00 | 58 | 1018.0 |
| 20260503204839 | 12 | 210 | 11.3 | 0.0 | 0.00 | 0.00 | 0.00 | 54 | 1018.0 |
| 20260503203451 | 12 | 210 | 11.3 | 0.0 | 0.00 | 0.00 | 0.00 | 54 | 1018.0 |
| 20260503201832 | 12 | 200 | 11.3 | 0.0 | 0.00 | 0.00 | 0.00 | 54 | 1018.0 |
| 20260503200342 | 12 | 200 | 11.3 | 0.0 | 0.00 | 0.00 | 0.00 | 54 | 1018.0 |
| 20260503194858 | 12 | 210 | 9.7 | 0.0 | 0.00 | 0.00 | 0.00 | 54 | 1018.0 |
| 20260503193452 | 12 | 210 | 9.7 | 0.0 | 0.00 | 0.00 | 0.00 | 54 | 1018.0 |
| 20260503191832 | 12 | 230 | 8.0 | 0.0 | 0.00 | 0.00 | 0.00 | 51 | 1018.0 |
| 20260503190332 | 12 | 230 | 8.0 | 0.0 | 0.00 | 0.00 | 0.00 | 51 | 1018.0 |
| 20260503184950 | 16 | 230 | 9.7 | 0.0 | 0.00 | 0.00 | 0.00 | 42 | 1018.0 |
| 20260503183332 | 16 | 230 | 9.7 | 0.0 | 0.00 | 0.00 | 0.00 | 42 | 1018.0 |
| 20260503181832 | 15 | 250 | 9.7 | 0.0 | 0.00 | 0.00 | 0.00 | 45 | 1018.0 |
| 20260503180332 | 15 | 250 | 9.7 | 0.0 | 0.00 | 0.00 | 0.00 | 45 | 1018.0 |
| 20260503174852 | 17 | 250 | 8.0 | 0.0 | 0.00 | 0.00 | 0.00 | 39 | 1018.0 |
| 20260503173357 | 17 | 250 | 8.0 | 0.0 | 0.00 | 0.00 | 0.00 | 39 | 1018.0 |
| 20260503171832 | 20 | 260 | 9.7 | 0.0 | 0.00 | 0.00 | 0.00 | 33 | 1018.0 |
| 20260503170333 | 20 | 260 | 9.7 | 0.0 | 0.00 | 0.00 | 0.00 | 33 | 1018.0 |
| 20260503150332 | 21 | 280 | 9.7 | 0.0 | 0.00 | 0.00 | 0.00 | 27 | 1018.0 |
| 20260503130333 | 21 | 260 | 9.7 | 0.0 | 0.00 | 0.00 | 0.00 | 27 | 1020.0 |
| 20260503110353 | 18 | 8.0 | 0.0 | 0.00 | 0.00 | 0.00 | 30 | 1021.0 | |
| 20260503090353 | 17 | 240 | 9.7 | 0.0 | 0.00 | 0.00 | 0.00 | 34 | 1023.0 |
| 20260503080343 | 16 | 180 | 8.0 | 0.0 | 0.00 | 0.00 | 0.00 | 34 | 1023.0 |
| 20260503071831 | 15 | 160 | 9.7 | 0.0 | 0.00 | 0.00 | 0.00 | 36 | 1023.0 |
| 20260503070333 | 15 | 160 | 9.7 | 0.0 | 0.00 | 0.00 | 0.00 | 36 | 1023.0 |
| 20260503060332 | 12 | 130 | 12.9 | 0.0 | 0.00 | 0.00 | 0.00 | 44 | 1023.0 |
| 20260503054832 | 12 | 120 | 11.3 | 0.0 | 0.00 | 0.00 | 0.00 | 47 | 1023.0 |
| 20260503053332 | 12 | 120 | 11.3 | 0.0 | 0.00 | 0.00 | 0.00 | 47 | 1023.0 |
| 20260503051832 | 10 | 110 | 11.3 | 0.0 | 0.00 | 0.00 | 0.00 | 54 | 1023.0 |
| 20260503050332 | 10 | 110 | 11.3 | 0.0 | 0.00 | 0.00 | 0.00 | 54 | 1023.0 |
| 20260503044832 | 7 | 110 | 11.3 | 0.0 | 0.00 | 0.00 | 0.00 | 62 | 1023.0 |
| 20260503043333 | 7 | 110 | 11.3 | 0.0 | 0.00 | 0.00 | 0.00 | 62 | 1023.0 |
| 20260503041832 | 6 | 110 | 9.7 | 0.0 | 0.00 | 0.00 | 0.00 | 71 | 1023.0 |
| 20260503040355 | 6 | 110 | 9.7 | 0.0 | 0.00 | 0.00 | 0.00 | 71 | 1023.0 |
| 20260503034834 | 5 | 110 | 9.7 | 0.0 | 0.00 | 0.00 | 0.00 | 70 | 1022.0 |
| 20260503033332 | 5 | 110 | 9.7 | 0.0 | 0.00 | 0.00 | 0.00 | 70 | 1022.0 |
| 20260503031832 | 5 | 110 | 11.3 | 0.0 | 0.00 | 0.00 | 0.00 | 70 | 1022.0 |
| 20260503030332 | 5 | 110 | 11.3 | 0.0 | 0.00 | 0.00 | 0.00 | 70 | 1022.0 |
| 20260503024847 | 3 | 100 | 11.3 | 0.0 | 0.00 | 0.00 | 0.00 | 70 | 1022.0 |
| 20260503023333 | 3 | 100 | 11.3 | 0.0 | 0.00 | 0.00 | 0.00 | 70 | 1022.0 |
| 20260503021832 | 5 | 80 | 12.9 | 0.0 | 0.00 | 0.00 | 0.00 | 66 | 1022.0 |
| 20260503020332 | 5 | 80 | 12.9 | 0.0 | 0.00 | 0.00 | 0.00 | 66 | 1022.0 |
| 20260503014832 | 7 | 130 | 9.7 | 0.0 | 0.00 | 0.00 | 0.00 | 53 | 1022.0 |
| 20260503013332 | 7 | 130 | 9.7 | 0.0 | 0.00 | 0.00 | 0.00 | 53 | 1022.0 |
| 20260503011832 | 3 | 120 | 9.7 | 0.0 | 0.00 | 0.00 | 0.00 | 65 | 1022.0 |
| 20260503010332 | 3 | 120 | 9.7 | 0.0 | 0.00 | 0.00 | 0.00 | 65 | 1022.0 |
| 20260503004832 | 3 | 50 | 4.8 | 0.0 | 0.00 | 0.00 | 0.00 | 65 | 1022.0 |
| 20260503003332 | 3 | 50 | 4.8 | 0.0 | 0.00 | 0.00 | 0.00 | 65 | 1022.0 |
| 20260503001832 | 5 | 90 | 4.8 | 0.0 | 0.00 | 0.00 | 0.00 | 66 | 1022.0 |
| 20260503000332 | 5 | 90 | 4.8 | 0.0 | 0.00 | 0.00 | 0.00 | 66 | 1022.0 |
| 20260502234832 | 6 | 100 | 9.7 | 0.0 | 0.00 | 0.00 | 0.00 | 57 | 1022.0 |
| 20260502233332 | 6 | 100 | 9.7 | 0.0 | 0.00 | 0.00 | 0.00 | 57 | 1022.0 |
| 20260502231832 | 7 | 110 | 9.7 | 0.0 | 0.00 | 0.00 | 0.00 | 57 | 1022.0 |
| 20260502230333 | 7 | 110 | 9.7 | 0.0 | 0.00 | 0.00 | 0.00 | 57 | 1022.0 |